[[{"header":{"parameterUnit":"m.s-1","parameterCategory":1,"la1":30.2991,"la2":30.254,"lo1":-89.0895,"lo2":-89.0444,"dy":0.0017,"dx":0.0017,"nx":28,"ny":28,"refTime":"2025-03-11T03:00:00:Z","depth":0,"parameterNumber":2,"parameterNumberName":"U-component_of_WINDS"},"data":[0,0,0,0,0,0,0,0,0,0,0,0,0,0,0,0,0,0,0,0,0,0,0,0,0,0,0,0,0,0,0,0,0,0,0,0,0,0,0,0,0,0,0,0,0,0,0,0,0,0,0,0,0,0,0,0,0,0,2.1237,2.1238,0,2.1323,2.1324,2.1325,2.135,2.135,2.1349,2.1349,2.1442,2.1445,2.1447,0,0,0,0,0,0,0,0,0,0,0,0,0,2.1101,2.1103,2.1237,2.1238,2.1239,2.1323,2.1324,2.1326,2.135,2.135,2.1349,2.1348,2.1441,2.1444,2.1448,0,0,0,0,0,0,0,0,0,0,0,0,0,2.1171,2.1104,2.1237,2.1262,2.1265,2.1323,2.1325,2.1326,2.135,2.135,2.1349,2.1348,2.144,2.1444,2.1448,2.149,0,0,2.1462,2.1464,0,0,0,0,0,0,0,0,2.1167,2.1176,2.1257,2.126,2.1264,2.1325,2.1311,2.1381,2.135,2.1318,2.1349,2.1348,2.1404,2.1411,2.1429,2.1494,2.1498,2.1462,2.1465,2.1467,2.1468,0,0,0,0,0,0,0,2.1162,2.1172,2.1272,2.1258,2.1262,2.1271,2.128,2.1324,2.1364,2.1321,2.1323,2.1332,2.1406,2.1425,2.1431,2.15,2.1462,2.1466,2.1469,2.147,2.1608,2.1609,0,0,0,0,0,0,2.1152,2.1168,2.1269,2.1274,2.1212,2.1274,2.1284,2.1306,2.1364,2.1372,2.1333,2.1333,2.1418,2.1426,2.1435,2.149,2.1467,2.1471,2.1473,2.1607,2.1608,2.1609,0,0,0,0,0,0,2.1149,2.1161,2.1265,2.1222,2.1236,2.1277,2.1302,2.1308,2.1327,2.1373,2.1381,2.1345,2.1417,2.1429,2.1477,2.1493,2.1473,2.1477,2.1606,2.1607,2.1609,2.1599,0,0,0,0,0,0,2.1145,2.116,2.1174,2.1222,2.1238,2.1303,2.1303,2.131,2.1334,2.1336,2.1386,2.1394,2.1418,2.147,2.1481,2.1499,2.148,2.1604,2.1606,2.1608,2.1598,2.16,2.1602,0,0,0,0,0,2.114,2.1168,2.1174,2.1187,2.1256,2.1304,2.1314,2.1339,2.1335,2.1352,2.1382,2.1392,2.149,2.1475,2.1487,2.1507,2.1603,2.1606,2.1608,2.1597,2.1599,2.1602,0,0,0,0,0,0,2.1122,2.1175,2.1182,2.1226,2.126,2.1308,2.1329,2.1341,2.1378,2.1378,2.141,2.1421,2.1467,2.1492,2.1474,2.1553,2.1547,2.1552,2.1535,2.1537,2.1539,2.1533,2.1484,0,0,0,0,0,2.1123,2.1155,2.12,2.1235,2.1251,2.1287,2.1309,2.1326,2.1364,2.1379,2.1412,2.1449,2.1489,2.1514,2.1553,2.1602,2.1615,2.1622,2.1624,2.1625,2.1629,2.1661,2.1665,2.1617,2.1617,2.1617,0,0,2.1125,2.1158,2.1177,2.1232,2.126,2.1296,2.1299,2.1336,2.1364,2.1385,2.1432,2.1458,2.1503,2.1552,2.1575,2.1574,2.1646,2.1628,2.1629,2.1632,2.1663,2.1668,2.1672,2.1618,2.1618,2.1618,0,0,2.1148,2.1175,2.1208,2.1237,2.128,2.1304,2.1312,2.1359,2.1377,2.1425,2.1442,2.1477,2.1543,2.1575,2.16,2.1639,2.1651,2.1651,2.1661,2.1691,2.1695,2.1698,2.1715,2.172,2.1655,2.1655,2.1655,0,2.1146,2.1198,2.1224,2.126,2.1286,2.1306,2.1342,2.1369,2.1423,2.1441,2.1439,2.1525,2.1556,2.1615,2.1624,2.1643,2.1656,2.1645,2.1692,2.1696,2.1699,2.1716,2.1721,2.1655,2.1655,2.1655,2.1655,0,2.1195,2.1231,2.1253,2.1304,2.1332,2.1368,2.1402,2.1427,2.1443,2.1468,2.1519,2.1558,2.1606,2.1621,2.1637,2.1684,2.1682,2.1685,2.168,2.1703,2.1719,2.1725,2.1654,2.1654,2.1654,2.1654,0,0,2.1207,2.1274,2.1281,2.1306,2.1357,2.1387,2.1425,2.1472,2.1494,2.1532,2.1567,2.1625,2.1629,2.1657,2.1677,2.1703,2.1735,2.1704,2.1706,2.1711,2.1793,2.1791,2.1798,2.1744,2.1745,2.1746,2.179,0,2.1237,2.1305,2.1331,2.1387,2.1423,2.1444,2.1479,2.1515,2.1541,2.1577,2.1606,2.1647,2.1648,2.1666,2.1693,2.1725,2.1753,2.1723,2.178,2.1781,2.1769,2.1806,2.1803,2.1843,2.1796,2.1797,2.1798,0,2.1281,2.1319,2.1379,2.1428,2.1444,2.1474,2.1521,2.1554,2.1597,2.1615,2.1648,2.1666,2.1711,2.1703,2.1767,2.1746,2.1772,2.1792,2.1794,2.1801,2.1792,2.1816,2.1856,2.1863,2.1808,2.1807,2.1806,0,2.1287,2.1353,2.1398,2.1418,2.1476,2.1498,2.1523,2.1565,2.1593,2.1634,2.1653,2.17,2.1726,2.1763,2.1795,2.1786,2.1857,2.1851,2.1875,2.1875,2.189,2.1889,2.1936,2.1903,2.1903,2.1903,2.1903,0,2.1319,2.1355,2.1402,2.1429,2.1472,2.1503,2.1545,2.1572,2.1611,2.1647,2.1668,2.1702,2.1742,2.1782,2.1808,2.1859,2.187,2.1887,2.1894,2.1886,2.1884,2.1904,2.1903,2.1905,2.1904,2.1904,2.1904,0,2.1332,2.1364,2.1415,2.1467,2.1481,2.151,2.1555,2.1585,2.1612,2.1658,2.167,2.1714,2.1763,2.1799,2.1861,2.1879,2.1934,2.194,2.1919,2.1923,2.1946,2.1944,2.2009,2.2021,2.1978,2.1978,2.1978,0,2.1351,2.1379,2.1434,2.1459,2.1485,2.1524,2.1553,2.1586,2.1615,2.1669,2.1693,2.1742,2.1784,2.1861,2.19,2.1949,2.1958,2.1978,2.1965,2.1958,2.1961,2.196,2.1964,2.1979,2.198,2.198,2.198,0,2.1382,2.1397,2.1436,2.1482,2.1515,2.1553,2.1591,2.1611,2.1652,2.1684,2.1733,2.1766,2.183,2.1881,2.1935,2.1964,2.198,2.1984,2.1992,2.1985,2.1973,2.1983,2.1926,2.1982,2.1982,2.1982,2.1982,2.1982,2.14,2.1427,2.1471,2.1515,2.1548,2.1584,2.1615,2.1647,2.1688,2.1742,2.176,2.1812,2.1859,2.1933,2.1963,2.2007,2.2006,2.2018,2.2022,2.2024,2.2025,2.1965,2.2016,2.2016,2.2016,2.2016,2.2016,0,2.1434,2.1463,2.1503,2.1557,2.1593,2.1603,2.1647,2.1677,2.1722,2.1764,2.1805,2.1864,2.1914,2.1958,2.201,2.2037,2.2046,2.205,2.2049,2.2056,2.2021,2.2009,2.2042,2.2042,2.2042,2.2042,2.2042,2.2042,2.1455,2.1504,2.1525,2.1591,2.1621,2.1671,2.1696,2.1731,2.1765,2.1829,2.187,2.1898,2.1942,2.1999,2.2047,2.2059,2.2078,2.2081,2.2095,2.2061,2.2058,2.2055,2.2045,2.2084,2.2084,2.2127,2.2128,2.2128]},{"header":{"parameterUnit":"m.s-1","parameterCategory":1,"la1":30.2991,"la2":30.254,"lo1":-89.0895,"lo2":-89.0444,"dy":0.0017,"dx":0.0017,"nx":28,"ny":28,"refTime":"2025-03-11T03:00:00:Z","depth":0,"parameterNumber":3,"parameterNumberName":"V-component_of_WINDS"},"data":[0,0,0,0,0,0,0,0,0,0,0,0,0,0,0,0,0,0,0,0,0,0,0,0,0,0,0,0,0,0,0,0,0,0,0,0,0,0,0,0,0,0,0,0,0,0,0,0,0,0,0,0,0,0,0,0,0,0,-1.9925,-1.9924,0,-1.9794,-1.9792,-1.9791,-1.9851,-1.9854,-1.9858,-1.9861,-1.9724,-1.9717,-1.9711,0,0,0,0,0,0,0,0,0,0,0,0,0,-2.0228,-2.0222,-1.9925,-1.9924,-1.9922,-1.9794,-1.9792,-1.9791,-1.985,-1.9854,-1.9858,-1.9862,-1.9726,-1.9718,-1.971,0,0,0,0,0,0,0,0,0,0,0,0,0,-2.0096,-2.022,-1.9926,-1.9937,-1.9936,-1.9795,-1.9792,-1.979,-1.985,-1.9855,-1.9859,-1.9864,-1.9729,-1.9719,-1.9709,-1.9548,0,0,-1.9678,-1.9674,0,0,0,0,0,0,0,0,-2.0104,-2.0085,-1.9937,-1.9936,-1.9935,-1.9844,-1.9849,-1.9709,-1.9848,-1.9882,-1.9861,-1.9866,-1.976,-1.9747,-1.9712,-1.9542,-1.9536,-1.9677,-1.9671,-1.9667,-1.9664,0,0,0,0,0,0,0,-2.0113,-2.0091,-1.9873,-1.9934,-1.9933,-1.9948,-1.9935,-1.9823,-1.9795,-1.988,-1.9884,-1.9868,-1.976,-1.9721,-1.9709,-1.9534,-1.9678,-1.9669,-1.9662,-1.9658,-1.9227,-1.9222,0,0,0,0,0,0,-2.0122,-2.0098,-1.9878,-1.9869,-2.0033,-1.9939,-1.9924,-1.9868,-1.9796,-1.979,-1.9864,-1.9871,-1.9736,-1.9721,-1.9704,-1.9511,-1.9667,-1.9658,-1.9652,-1.9232,-1.9226,-1.922,0,0,0,0,0,0,-2.0128,-2.0102,-1.9883,-1.9985,-1.9958,-1.9928,-1.9865,-1.9863,-1.9824,-1.9784,-1.9779,-1.9829,-1.9739,-1.9719,-1.9587,-1.9508,-1.9653,-1.9644,-1.9239,-1.923,-1.9223,-1.9124,0,0,0,0,0,0,-2.0137,-2.0103,-2.0042,-1.9983,-1.9953,-1.9767,-1.986,-1.9857,-1.9807,-1.9815,-1.975,-1.9744,-1.9742,-1.9602,-1.9577,-1.9496,-1.9636,-1.9246,-1.9235,-1.9225,-1.9134,-1.9113,-1.9096,0,0,0,0,0,-2.0147,-2.0018,-2.0038,-2.0011,-1.9875,-1.9762,-1.9745,-1.9745,-1.98,-1.9738,-1.9713,-1.9746,-1.9521,-1.9588,-1.956,-1.9475,-1.9251,-1.9238,-1.9226,-1.9143,-1.9118,-1.9096,0,0,0,0,0,0,-2.0067,-2.0011,-2.0032,-1.9881,-1.9826,-1.9773,-1.9694,-1.9718,-1.9646,-1.9657,-1.966,-1.9645,-1.9508,-1.9479,-1.9555,-1.9317,-1.9394,-1.9376,-1.934,-1.9316,-1.9297,-1.9306,-1.9628,0,0,0,0,0,-2.0032,-1.9945,-1.9901,-1.9772,-1.9744,-1.9723,-1.9674,-1.968,-1.9623,-1.96,-1.9565,-1.9508,-1.9425,-1.9369,-1.929,-1.9132,-1.9118,-1.906,-1.9041,-1.9026,-1.9009,-1.8924,-1.8897,-1.918,-1.918,-1.918,0,0,-1.9958,-1.9917,-1.9861,-1.9755,-1.9713,-1.9623,-1.9703,-1.9605,-1.9538,-1.9584,-1.9458,-1.9431,-1.9368,-1.9222,-1.9156,-1.9194,-1.8929,-1.901,-1.8998,-1.8989,-1.8908,-1.8881,-1.8858,-1.9171,-1.9173,-1.9174,0,0,-1.9776,-1.9737,-1.9625,-1.9582,-1.9519,-1.9507,-1.948,-1.9424,-1.9407,-1.9281,-1.9315,-1.9236,-1.9092,-1.9046,-1.9004,-1.8809,-1.8837,-1.8784,-1.8682,-1.8599,-1.8577,-1.8557,-1.8487,-1.8462,-1.8768,-1.8768,-1.8767,0,-1.9692,-1.9558,-1.9564,-1.9463,-1.9415,-1.9456,-1.9342,-1.9301,-1.9214,-1.918,-1.9224,-1.9046,-1.9006,-1.8851,-1.8803,-1.8768,-1.8738,-1.8789,-1.858,-1.856,-1.8542,-1.8475,-1.8448,-1.8761,-1.8762,-1.8763,-1.8763,0,-1.9457,-1.9364,-1.9282,-1.9198,-1.9142,-1.9035,-1.9025,-1.8967,-1.8979,-1.8962,-1.8834,-1.8789,-1.8702,-1.8666,-1.8676,-1.8512,-1.8537,-1.858,-1.8657,-1.8508,-1.8445,-1.842,-1.8752,-1.8755,-1.8757,-1.8758,0,0,-1.9217,-1.9142,-1.9111,-1.9074,-1.9009,-1.8937,-1.8833,-1.8749,-1.8699,-1.864,-1.8552,-1.8432,-1.8472,-1.8424,-1.8429,-1.8357,-1.8205,-1.8409,-1.8407,-1.8371,-1.8022,-1.7988,-1.7959,-1.8225,-1.822,-1.8216,-1.8027,0,-1.903,-1.8848,-1.8852,-1.8683,-1.8597,-1.8636,-1.8546,-1.8496,-1.8479,-1.8404,-1.8386,-1.83,-1.836,-1.8331,-1.8262,-1.8238,-1.8135,-1.8252,-1.8143,-1.8139,-1.8155,-1.7926,-1.7889,-1.7712,-1.8003,-1.7999,-1.7996,0,-1.8786,-1.872,-1.8542,-1.8491,-1.8455,-1.8374,-1.8298,-1.8227,-1.8172,-1.8165,-1.8113,-1.8131,-1.8026,-1.8109,-1.7965,-1.8045,-1.8001,-1.7983,-1.7977,-1.7964,-1.8056,-1.7905,-1.7656,-1.7629,-1.7957,-1.796,-1.7963,0,-1.8628,-1.8494,-1.837,-1.8338,-1.8276,-1.8218,-1.8189,-1.8139,-1.8089,-1.8024,-1.7992,-1.7915,-1.7872,-1.7812,-1.7809,-1.787,-1.7663,-1.7746,-1.7654,-1.7654,-1.7606,-1.7608,-1.7344,-1.7581,-1.7582,-1.7582,-1.7583,0,-1.8416,-1.8306,-1.8298,-1.8222,-1.81,-1.8107,-1.7986,-1.7963,-1.7919,-1.7839,-1.787,-1.7794,-1.7796,-1.7719,-1.7717,-1.7598,-1.7579,-1.757,-1.757,-1.7565,-1.7566,-1.7534,-1.7546,-1.7575,-1.7577,-1.7578,-1.7579,0,-1.8216,-1.8207,-1.8075,-1.8028,-1.8014,-1.7926,-1.7886,-1.7814,-1.7802,-1.77,-1.7677,-1.7657,-1.7569,-1.7561,-1.7459,-1.7457,-1.7313,-1.7327,-1.7331,-1.7332,-1.724,-1.7248,-1.6944,-1.6905,-1.717,-1.7167,-1.7165,0,-1.8081,-1.7997,-1.7942,-1.7891,-1.7859,-1.7777,-1.7727,-1.7732,-1.7678,-1.7611,-1.7547,-1.7463,-1.7395,-1.7253,-1.7229,-1.7151,-1.7163,-1.7062,-1.7151,-1.715,-1.716,-1.7164,-1.7155,-1.7043,-1.7041,-1.7038,-1.7036,0,-1.7841,-1.7841,-1.7768,-1.7693,-1.7633,-1.7574,-1.7519,-1.7476,-1.7474,-1.7413,-1.7324,-1.7271,-1.7168,-1.7084,-1.7009,-1.698,-1.7007,-1.7009,-1.6983,-1.6976,-1.6981,-1.6976,-1.7281,-1.7015,-1.7017,-1.7019,-1.702,-1.7021,-1.7668,-1.7595,-1.7546,-1.7463,-1.7423,-1.7372,-1.7302,-1.7282,-1.7208,-1.7125,-1.7133,-1.7034,-1.6984,-1.6886,-1.6852,-1.6775,-1.6809,-1.6772,-1.6762,-1.6752,-1.6742,-1.6996,-1.6762,-1.6763,-1.6763,-1.6764,-1.6764,0,-1.7428,-1.7399,-1.7323,-1.7246,-1.7182,-1.7216,-1.7158,-1.7102,-1.7015,-1.6966,-1.69,-1.6798,-1.6717,-1.6689,-1.6611,-1.6555,-1.6565,-1.6534,-1.6536,-1.6529,-1.6717,-1.6746,-1.6526,-1.6526,-1.6527,-1.6527,-1.6527,-1.6527,-1.7295,-1.7175,-1.717,-1.703,-1.7002,-1.6906,-1.687,-1.6823,-1.6785,-1.667,-1.6603,-1.6586,-1.6546,-1.6465,-1.6393,-1.6387,-1.6356,-1.6318,-1.6317,-1.6492,-1.6516,-1.6539,-1.6566,-1.6312,-1.6312,-1.6136,-1.6134,-1.6133]}]]